Location: Treviso
(45.6669°N, 12.2430°E)
Time: 06:13:05
(UTC+02:00)

DELFI C3 - Visible Passes

Search period start: 22 April 2019 00:00
Search period end: 02 May 2019 00:00
Orbit: 538 x 554 km, 97.5° (Epoch: 20 April)

Date Brightness Start Highest point End Pass type
(mag) Time Alt. Az. Time Alt. Az. Time Alt. Az.
22 Apr ? 20:47:19 10° SE 20:50:42 29° ENE 20:54:08 10° N visible
22 Apr ? 22:22:40 13° SW 22:25:22 24° W 22:28:36 10° NW visible
23 Apr ? 20:41:56 10° SE 20:45:11 25° ENE 20:48:29 10° NNE visible
23 Apr ? 22:16:58 13° SSW 22:19:47 27° W 22:23:11 10° NW visible
24 Apr ? 20:36:36 10° ESE 20:39:41 23° ENE 20:42:48 10° NNE visible
24 Apr ? 22:11:17 14° SSW 22:14:12 31° W 22:17:45 10° NNW visible
25 Apr ? 22:05:35 14° SSW 22:08:37 36° W 22:12:17 10° NNW visible
26 Apr ? 21:59:53 14° SSW 22:03:02 41° W 22:06:48 10° NNW visible
27 Apr ? 21:54:11 13° S 21:57:27 48° W 22:01:19 10° NNW visible
28 Apr ? 21:48:29 13° S 21:51:53 56° W 21:55:48 10° NNW visible
29 Apr ? 21:42:47 12° S 21:46:19 66° W 21:50:16 10° NNW visible
30 Apr ? 21:37:05 12° S 21:40:45 76° WSW 21:44:43 10° NNW visible
01 May ? 21:31:24 11° SSE 21:35:11 88° WSW 21:39:11 10° NNW visible
